Wind_Speed
51 50 48 44 31 35 36 37 37 35 34 31 31 31 27 31 37 41 44 48 47 49 52 54 53 43 40 42 42 43 44 46 54 55 54 56 59 61 62 63 66 71 73
56 55 51 50 52 48 44 41 44 41 40 39 36 31 30 34 38 41 45 45 46 47 52 55 51 40 38 39 40 40 42 43 46 56 58 62 61 64 66 68 72 75 77
54 56 56 56 54 52 52 50 48 47 46 43 41 33 32 36 39 42 45 45 48 47 50 53 49 38 37 36 38 38 40 39 42 48 55 58 61 67 71 69 65 69 72
57 55 62 63 63 61 55 51 49 46 45 41 41 37 36 37 40 42 45 45 48 50 49 50 50 36 33 34 35 34 34 37 41 44 49 52 54 56 58 60 61 62 64
58 53 61 65 66 61 58 58 53 49 46 45 39 38 40 41 43 45 44 44 50 49 48 45 44 35 33 34 33 33 34 35 36 39 42 45 48 50 53 57 59 60 63
60 53 61 67 67 64 63 62 57 54 49 42 40 41 44 43 46 45 44 45 50 49 47 44 42 37 35 35 36 36 35 36 38 40 43 47 50 52 55 56 58 60 61
63 56 64 72 67 66 65 64 60 54 49 45 41 42 45 48 47 48 46 45 49 49 45 42 43 40 35 36 36 36 38 40 43 44 45 46 48 51 54 55 55 56 56
65 59 66 72 69 68 64 61 58 55 52 48 48 47 50 50 47 49 48 47 48 46 44 42 44 44 39 39 35 33 37 40 41 42 43 46 48 50 50 49 51 50 48
60 59 67 71 69 67 65 62 57 58 57 49 51 52 52 52 49 51 47 48 47 45 43 43 44 48 40 37 34 35 39 41 42 43 44 46 47 46 45 46 44 43 41
64 62 71 72 73 71 70 66 62 58 58 57 58 57 55 52 51 53 48 46 45 46 44 44 45 47 41 40 39 41 43 44 46 43 42 45 45 42 42 42 39 36 34
71 74 75 74 71 65 67 65 63 61 58 57 56 56 57 53 54 53 49 46 45 44 46 45 44 46 45 43 42 42 42 43 44 40 42 43 42 41 39 37 35 33 33
77 75 71 70 66 63 63 62 57 56 55 55 54 56 56 55 55 52 48 46 44 44 45 47 45 47 46 45 42 42 42 42 42 39 42 42 41 40 37 35 35 35 36
77 75 72 71 68 66 63 60 58 56 55 55 57 57 57 57 55 51 49 47 45 45 47 47 45 46 47 46 43 44 42 42 41 40 43 41 39 39 37 37 37 37 36
76 75 73 72 69 68 66 63 61 59 59 59 57 58 57 56 54 52 50 49 43 44 48 50 47 46 48 48 47 45 42 41 41 41 44 41 39 39 38 38 39 37 37
81 78 78 75 71 68 67 65 65 64 61 57 57 58 56 55 54 53 52 49 44 46 49 51 49 47 48 48 48 47 42 43 40 42 45 41 40 38 39 39 39 38 39
83 84 82 78 76 72 71 69 66 63 60 60 60 59 57 56 55 57 53 48 44 46 48 51 50 48 49 51 48 48 42 42 41 42 43 41 40 41 39 40 40 40 42
83 81 82 80 79 75 72 69 66 63 63 63 63 61 60 60 60 57 55 47 46 48 51 51 50 51 51 51 48 50 42 42 43 43 42 41 40 41 41 40 42 43 46
88 87 83 79 76 70 72 72 69 69 69 68 64 62 62 61 61 57 54 48 48 51 54 52 51 54 54 51 49 49 42 42 44 44 42 41 42 42 43 42 43 45 48
85 85 84 83 78 72 73 71 71 69 69 65 63 64 63 64 61 54 53 49 51 52 53 51 54 55 53 50 53 46 40 43 43 45 44 43 43 45 45 45 46 48 50
83 81 79 78 77 73 73 72 69 67 65 66 64 64 62 61 58 54 53 53 53 55 52 56 54 56 52 52 48 44 43 44 45 47 46 46 44 44 44 45 45 48 51
83 81 78 77 81 76 75 72 70 67 66 65 64 62 63 62 58 59 56 54 55 56 55 55 56 57 52 49 46 45 45 45 47 47 48 47 46 45 45 47 49 51 53
81 80 78 76 75 74 73 74 74 69 68 67 67 65 67 64 63 60 57 58 58 58 58 58 60 55 51 48 47 48 48 47 48 48 49 49 48 47 48 50 51 52 54
81 77 78 75 68 78 72 75 75 72 70 69 66 67 68 67 64 61 60 60 63 62 61 63 58 55 51 49 49 50 49 50 50 49 49 50 51 50 50 51 52 53 53
85 83 79 76 77 74 74 75 73 71 70 69 67 67 67 68 64 63 65 67 67 66 64 60 56 51 48 48 49 51 53 52 50 51 51 50 50 51 52 52 53 54 55
87 86 84 84 80 78 79 76 73 71 70 69 70 71 72 72 72 72 70 69 69 65 61 57 54 50 48 49 53 56 55 53 53 52 52 50 51 53 53 53 51 53 53
85 85 85 85 85 86 85 83 82 78 77 76 76 76 74 72 70 70 71 69 67 62 61 56 54 52 55 56 57 59 56 56 56 55 53 51 52 53 52 51 50 52 53
Wind_Direction
228 232 228 228 210 233 237 242 249 254 263 270 288 287 292 298 304 306 312 315 317 318 319 322 325 307 297 290 288 286 281 279 270 273 275 279 281 282 285 288 289 291 294
229 234 231 225 222 230 234 243 249 255 262 267 282 285 296 299 303 306 310 312 316 318 319 325 327 312 305 295 293 290 285 283 280 276 275 277 280 285 288 289 291 291 294
230 237 233 231 226 232 240 243 248 254 261 266 275 288 293 296 305 308 309 314 316 319 322 327 329 321 310 301 294 292 290 286 285 282 280 285 287 284 286 291 293 295 296
233 236 236 236 235 233 234 239 246 257 260 265 275 285 290 295 304 311 315 317 313 319 318 325 330 319 323 313 302 301 296 291 291 292 294 295 295 296 297 297 299 299 299
234 234 240 235 239 243 242 245 250 256 259 263 274 281 285 293 303 311 316 312 314 316 318 331 327 318 319 315 314 311 308 305 304 301 301 302 302 301 300 299 299 300 299
234 233 240 236 237 241 245 247 253 260 261 263 272 278 283 291 301 311 313 311 313 311 315 329 326 317 315 316 312 310 310 309 308 306 303 302 303 304 304 304 301 300 300
232 231 237 235 236 240 244 248 252 260 260 261 270 276 282 290 298 309 311 307 310 311 314 326 332 319 313 318 314 309 308 308 306 306 306 305 307 307 307 306 305 305 305
236 237 240 237 238 241 246 251 255 261 265 261 266 272 279 288 296 307 307 306 306 308 314 324 328 325 310 313 313 313 315 314 309 309 310 311 311 311 312 313 311 310 311
238 239 240 236 238 239 244 252 258 259 261 263 264 269 278 286 295 303 303 305 302 305 312 318 324 328 313 306 307 313 318 320 318 314 314 316 316 318 318 317 316 317 316
235 236 235 236 239 242 246 249 253 258 258 262 266 269 276 284 292 298 300 302 301 302 308 314 322 328 321 311 301 307 314 317 320 317 317 318 320 322 319 318 320 320 319
229 230 233 236 240 244 247 248 248 253 258 261 265 268 274 281 289 295 298 301 298 301 306 311 316 322 324 317 309 309 312 315 319 318 320 320 323 323 323 323 323 325 328
227 229 232 236 240 242 245 248 251 254 257 260 264 268 273 280 287 291 295 298 296 298 303 306 311 317 321 318 315 312 313 314 318 320 320 321 323 323 323 324 323 327 328
232 234 236 239 240 243 246 251 254 256 257 259 263 266 271 278 284 288 294 296 293 294 299 302 304 311 317 314 316 313 312 314 316 317 320 319 321 322 322 322 325 328 330
232 235 237 239 241 245 247 249 252 253 255 258 261 264 271 277 283 287 292 294 289 291 297 298 300 308 312 312 314 313 311 313 315 315 317 316 318 320 323 323 328 330 333
231 235 237 238 241 243 246 248 250 254 256 257 261 267 272 276 279 282 289 288 286 290 295 292 296 304 311 311 310 315 308 312 314 311 315 313 314 316 322 325 327 330 334
232 233 236 238 240 243 246 249 252 254 255 258 261 267 271 272 273 281 288 282 281 286 294 290 293 299 306 308 307 313 306 309 315 312 312 309 310 313 316 322 323 325 327
233 235 238 239 241 244 248 251 253 254 256 259 264 265 269 269 272 281 286 275 277 284 291 289 287 299 304 305 303 310 306 309 312 311 308 306 307 310 313 316 316 318 321
236 237 237 239 243 246 249 249 251 254 257 259 261 262 267 266 274 283 281 274 278 283 288 285 285 297 303 301 302 305 302 308 311 310 306 303 305 304 307 311 315 315 318
235 238 241 243 243 243 245 249 252 253 256 257 261 265 269 266 276 276 276 277 281 284 286 280 287 297 298 297 301 299 298 306 309 310 305 302 302 304 304 308 310 312 316
234 238 241 243 243 241 244 247 247 251 253 259 262 263 263 268 272 272 274 277 280 284 279 283 289 297 295 296 295 294 295 302 307 311 306 304 302 303 306 308 310 312 317
232 235 239 243 244 241 242 244 246 250 256 258 257 258 263 268 268 270 271 277 280 278 279 284 292 294 293 294 291 289 292 300 307 307 307 303 301 300 304 306 306 310 312
231 234 235 238 245 245 244 245 246 248 250 253 255 258 263 264 266 270 270 276 278 277 279 285 292 290 290 288 287 284 290 299 304 302 303 303 299 298 300 302 306 308 309
228 233 235 237 240 243 245 245 248 250 249 250 253 257 261 265 268 268 271 274 276 274 281 288 287 286 287 284 282 283 292 296 299 299 300 302 299 297 299 301 305 307 310
229 231 234 237 239 246 244 247 245 244 246 248 252 255 260 265 268 268 271 275 275 279 282 283 284 281 281 281 285 285 289 295 294 297 297 299 299 298 299 302 304 307 309
228 231 232 235 238 241 243 244 246 247 249 251 254 257 260 263 267 270 271 272 274 278 279 279 278 275 275 280 282 284 290 289 291 292 295 296 297 299 301 304 306 307 309
227 229 231 233 236 240 246 247 249 249 252 255 257 259 262 263 263 264 267 271 274 275 276 274 272 272 277 279 279 282 283 286 287 289 293 293 294 297 300 304 304 306 307
Height
10721 10727 10736 10744 10756 10745 10747 10751 10756 10758 10760 10764 10764 10765 10764 10764 10763 10762 10759 10756 10751 10746 10741 10735 10726 10720 10716 10714 10713 10713 10712 10712 10711 10708 10707 10703 10700 10697 10693 10688 10683 10677 10670
10710 10717 10727 10734 10736 10738 10741 10746 10749 10751 10754 10757 10758 10758 10757 10757 10757 10754 10752 10749 10744 10739 10734 10727 10720 10714 10708 10706 10705 10704 10703 10702 10700 10698 10696 10692 10689 10685 10680 10675 10670 10663 10656
10704 10711 10718 10724 10726 10731 10735 10740 10742 10745 10748 10751 10752 10751 10751 10751 10750 10747 10745 10741 10735 10731 10725 10719 10713 10707 10703 10700 10698 10696 10694 10692 10690 10688 10685 10682 10678 10673 10667 10661 10654 10648 10641
10693 10702 10709 10715 10718 10723 10728 10730 10733 10737 10740 10743 10744 10745 10744 10743 10742 10740 10736 10731 10727 10724 10719 10713 10708 10702 10698 10694 10691 10689 10687 10685 10682 10679 10675 10671 10666 10661 10654 10647 10640 10633 10626
10683 10691 10697 10706 10708 10713 10719 10723 10725 10729 10732 10735 10737 10737 10737 10735 10734 10732 10728 10724 10720 10715 10710 10705 10701 10696 10693 10690 10685 10682 10678 10676 10672 10669 10664 10659 10654 10649 10642 10635 10628 10620 10613
10670 10681 10688 10694 10698 10704 10708 10711 10716 10720 10723 10726 10729 10729 10728 10727 10727 10724 10720 10716 10712 10708 10704 10699 10695 10690 10686 10682 10678 10675 10671 10668 10665 10661 10656 10650 10643 10637 10630 10623 10615 10607 10599
10658 10669 10675 10680 10688 10692 10697 10703 10708 10712 10715 10719 10721 10720 10719 10718 10719 10716 10713 10710 10707 10702 10698 10694 10689 10684 10680 10676 10672 10668 10665 10661 10657 10652 10646 10640 10633 10625 10618 10610 10602 10594 10587
10654 10660 10663 10672 10677 10683 10690 10695 10700 10704 10707 10711 10711 10712 10710 10709 10709 10708 10705 10702 10699 10694 10691 10687 10683 10678 10674 10671 10666 10662 10659 10654 10648 10643 10637 10631 10623 10616 10607 10600 10593 10585 10579
10640 10647 10654 10660 10666 10673 10680 10686 10691 10694 10698 10701 10702 10703 10700 10699 10700 10699 10697 10694 10691 10687 10684 10680 10676 10672 10667 10664 10660 10656 10651 10646 10640 10634 10628 10621 10614 10607 10599 10592 10585 10579 10573
10627 10636 10640 10648 10654 10664 10671 10675 10680 10684 10689 10692 10693 10693 10691 10691 10691 10690 10688 10686 10683 10680 10676 10673 10669 10665 10660 10656 10652 10648 10643 10638 10632 10625 10619 10613 10607 10600 10592 10586 10580 10574 10568
10610 10617 10624 10633 10643 10655 10659 10664 10670 10674 10678 10682 10684 10682 10681 10681 10682 10680 10679 10677 10674 10672 10669 10665 10662 10658 10653 10649 10644 10640 10634 10629 10623 10617 10612 10606 10599 10593 10586 10581 10575 10569 10563
10594 10603 10614 10622 10634 10641 10645 10650 10658 10663 10666 10671 10672 10671 10671 10671 10673 10670 10669 10668 10666 10664 10661 10657 10654 10651 10646 10642 10637 10631 10626 10621 10615 10610 10604 10598 10593 10587 10581 10576 10570 10564 10557
10586 10596 10606 10612 10621 10626 10634 10640 10646 10651 10655 10659 10661 10661 10662 10662 10662 10660 10660 10658 10657 10656 10653 10650 10647 10643 10639 10635 10630 10625 10619 10613 10608 10603 10597 10591 10586 10581 10575 10570 10564 10557 10551
10574 10583 10594 10600 10607 10613 10620 10628 10632 10639 10643 10646 10648 10650 10653 10652 10652 10651 10651 10648 10648 10646 10644 10642 10639 10635 10631 10627 10623 10617 10612 10606 10601 10596 10590 10584 10579 10574 10568 10563 10557 10551 10545
10563 10568 10574 10586 10593 10600 10606 10614 10620 10627 10632 10635 10637 10640 10641 10640 10640 10641 10641 10638 10638 10637 10635 10633 10630 10626 10623 10619 10615 10610 10604 10599 10593 10588 10582 10577 10571 10566 10561 10555 10550 10545 10539
10544 10551 10562 10575 10581 10588 10596 10604 10610 10616 10620 10622 10626 10628 10628 10628 10630 10631 10630 10629 10628 10627 10626 10624 10621 10618 10614 10611 10607 10602 10596 10592 10585 10581 10575 10570 10564 10560 10554 10548 10543 10538 10532
10532 10542 10550 10560 10569 10581 10588 10595 10601 10604 10607 10611 10613 10614 10614 10616 10619 10620 10620 10618 10617 10617 10616 10614 10612 10608 10605 10602 10598 10594 10588 10584 10578 10573 10568 10563 10559 10553 10548 10543 10536 10531 10525
10517 10526 10536 10549 10562 10575 10577 10581 10586 10590 10592 10596 10600 10600 10602 10605 10608 10607 10607 10606 10606 10606 10606 10604 10601 10599 10596 10593 10589 10585 10581 10576 10570 10565 10560 10556 10551 10546 10540 10536 10530 10523 10516
10503 10511 10524 10534 10549 10564 10561 10564 10570 10575 10577 10581 10585 10588 10591 10593 10594 10594 10594 10594 10595 10595 10595 10593 10592 10589 10587 10583 10580 10576 10573 10567 10562 10556 10552 10547 10543 10537 10533 10528 10522 10515 10509
10492 10501 10510 10519 10530 10546 10544 10548 10554 10559 10563 10566 10571 10574 10576 10578 10580 10581 10581 10581 10583 10583 10583 10583 10581 10579 10577 10574 10570 10567 10563 10559 10554 10548 10543 10539 10535 10530 10525 10519 10514 10507 10501
10478 10488 10497 10502 10505 10528 10531 10536 10541 10547 10551 10553 10555 10558 10559 10563 10566 10568 10568 10570 10570 10571 10571 10571 10570 10568 10566 10563 10560 10557 10553 10550 10545 10539 10534 10531 10526 10521 10516 10511 10505 10500 10494
10467 10474 10484 10490 10492 10500 10514 10519 10523 10533 10536 10540 10541 10543 10544 10551 10552 10555 10556 10557 10558 10558 10559 10559 10558 10556 10554 10551 10549 10546 10543 10540 10536 10530 10526 10522 10517 10513 10507 10501 10497 10492 10486
10454 10459 10468 10476 10474 10486 10493 10496 10505 10516 10522 10527 10530 10530 10532 10534 10538 10542 10543 10544 10545 10546 10547 10547 10545 10545 10542 10540 10538 10535 10532 10529 10525 10521 10517 10513 10508 10503 10498 10492 10488 10483 10478
10437 10447 10451 10457 10463 10464 10474 10476 10490 10498 10504 10511 10516 10518 10520 10521 10524 10527 10530 10531 10531 10532 10533 10533 10534 10533 10530 10528 10527 10524 10520 10518 10513 10509 10507 10504 10498 10493 10488 10484 10479 10474 10468
10422 10430 10437 10441 10447 10451 10454 10463 10472 10482 10488 10496 10500 10503 10507 10508 10511 10513 10515 10515 10515 10517 10518 10519 10519 10520 10517 10516 10514 10510 10508 10506 10502 10498 10497 10494 10488 10482 10478 10474 10470 10464 10458
10406 10413 10419 10426 10432 10438 10439 10449 10453 10467 10472 10478 10483 10488 10490 10493 10496 10497 10498 10499 10500 10502 10503 10503 10505 10506 10504 10503 10500 10497 10495 10492 10489 10486 10486 10483 10477 10472 10468 10464 10459 10453 10448